timestamp,wind_dir_avg,wind_spd_avg,wind_spd_max_dir,wind_spd_gust,battery_voltage,lat,long
2021-04-04 00:04:01+00:00,127.0,6.49,124.0,7.35,12.65,47.59359,-54.27349
2021-04-04 00:14:01+00:00,125.0,5.81,127.0,6.68,12.57,47.59359,-54.27349
2021-04-04 00:24:01+00:00,124.0,4.94,127.0,5.77,12.57,47.59359,-54.27349
2021-04-04 00:34:01+00:00,119.0,4.34,129.0,6.01,12.57,47.59359,-54.27349
2021-04-04 00:44:01+00:00,113.0,3.87,125.0,5.46,12.57,47.59359,-54.27349
2021-04-04 00:54:01+00:00,111.0,3.56,130.0,7.09,12.57,47.59359,-54.27349
2021-04-04 01:04:01+00:00,124.0,6.29,120.0,7.03,12.57,47.59359,-54.27349
2021-04-04 01:14:01+00:00,121.0,4.07,116.0,5.43,12.49,47.59359,-54.27349
2021-04-04 01:24:01+00:00,119.0,7.3,112.0,10.81,12.49,47.59359,-54.27349
2021-04-04 01:34:01+00:00,116.0,5.92,125.0,9.01,12.49,47.59359,-54.27349
2021-04-04 01:44:01+00:00,117.0,7.16,122.0,8.46,12.49,47.59359,-54.27349
2021-04-04 01:54:01+00:00,119.0,6.97,117.0,8.41,12.49,47.59359,-54.27349
2021-04-04 02:04:01+00:00,118.0,6.64,117.0,8.94,12.49,47.59359,-54.27349
2021-04-04 02:14:01+00:00,97.0,3.88,83.0,5.85,12.49,47.59359,-54.27349
2021-04-04 02:24:01+00:00,118.0,7.27,119.0,8.48,12.49,47.59359,-54.27349
2021-04-04 02:34:01+00:00,97.0,4.87,92.0,8.41,12.49,47.59359,-54.27349
2021-04-04 02:44:01+00:00,116.0,7.91,105.0,12.26,12.49,47.59359,-54.27349
2021-04-04 02:54:01+00:00,111.0,7.35,98.0,12.58,12.49,47.59359,-54.27349
2021-04-04 03:04:01+00:00,94.0,5.68,88.0,9.85,12.49,47.59359,-54.27349
2021-04-04 03:14:01+00:00,94.0,6.2,89.0,12.1,12.41,47.59359,-54.27349
2021-04-04 03:24:01+00:00,93.0,4.86,102.0,7.6,12.41,47.59359,-54.27349
2021-04-04 03:34:01+00:00,92.0,5.37,93.0,9.93,12.41,47.59359,-54.27349
2021-04-04 03:44:01+00:00,83.0,4.81,87.0,6.66,12.41,47.59359,-54.27349
2021-04-04 03:54:01+00:00,79.0,4.51,90.0,6.42,12.41,47.59359,-54.27349
2021-04-04 04:04:01+00:00,76.0,4.91,82.0,6.47,12.41,47.59359,-54.27349
2021-04-04 04:14:01+00:00,75.0,4.76,73.0,6.58,12.41,47.59359,-54.27349
2021-04-04 04:24:01+00:00,66.0,4.67,78.0,6.77,12.41,47.59359,-54.27349
2021-04-04 04:34:01+00:00,66.0,5.53,71.0,6.68,12.41,47.59359,-54.27349
2021-04-04 04:44:01+00:00,73.0,5.49,74.0,6.72,12.41,47.59359,-54.27349
2021-04-04 04:54:01+00:00,67.0,4.64,55.0,6.21,12.41,47.59359,-54.27349
2021-04-04 05:04:01+00:00,86.0,4.83,87.0,6.54,12.41,47.59359,-54.27349
2021-04-04 05:14:01+00:00,68.0,4.74,62.0,6.32,12.41,47.59359,-54.27349
2021-04-04 05:24:01+00:00,62.0,4.95,68.0,6.37,12.41,47.59359,-54.27349
2021-04-04 05:34:01+00:00,75.0,4.76,71.0,6.54,12.41,47.59359,-54.27349
2021-04-04 05:44:01+00:00,76.0,4.61,104.0,6.23,12.41,47.59359,-54.27349
2021-04-04 05:54:01+00:00,79.0,4.53,85.0,6.47,12.41,47.59359,-54.27349
2021-04-04 06:04:01+00:00,68.0,4.51,73.0,6.4,12.41,47.59359,-54.27349
2021-04-04 06:14:01+00:00,65.0,4.66,81.0,6.61,12.41,47.59359,-54.27349
2021-04-04 06:24:01+00:00,73.0,4.36,92.0,5.96,12.41,47.59359,-54.27349
2021-04-04 06:34:01+00:00,74.0,4.24,57.0,5.8,12.41,47.59359,-54.27349
2021-04-04 06:44:01+00:00,77.0,3.88,65.0,5.75,12.41,47.59359,-54.27349
2021-04-04 06:54:01+00:00,75.0,3.9,56.0,5.9,12.41,47.59359,-54.27349
2021-04-04 07:04:01+00:00,69.0,5.46,76.0,6.9,12.41,47.59359,-54.27349
2021-04-04 07:14:01+00:00,72.0,5.08,67.0,6.23,12.41,47.59359,-54.27349
2021-04-04 07:24:01+00:00,71.0,5.54,70.0,7.42,12.41,47.59359,-54.27349
2021-04-04 07:34:01+00:00,72.0,5.7,71.0,6.47,12.41,47.59359,-54.27349
2021-04-04 07:44:01+00:00,70.0,5.57,71.0,7.11,12.41,47.59359,-54.27349
2021-04-04 07:54:01+00:00,73.0,5.83,76.0,6.99,12.41,47.59359,-54.27349
2021-04-04 08:04:01+00:00,71.0,6.22,65.0,6.94,12.41,47.59359,-54.27349
2021-04-04 08:14:01+00:00,68.0,6.92,68.0,7.56,12.33,47.59359,-54.27349
2021-04-04 08:24:01+00:00,61.0,7.65,60.0,8.58,12.33,47.59359,-54.27349
2021-04-04 08:34:01+00:00,63.0,7.34,61.0,8.41,12.33,47.59359,-54.27349
2021-04-04 08:44:01+00:00,63.0,7.72,64.0,8.93,12.33,47.59359,-54.27349
2021-04-04 08:54:01+00:00,64.0,6.77,60.0,7.96,12.33,47.59359,-54.27349
2021-04-04 09:04:01+00:00,62.0,7.08,58.0,7.92,12.33,47.59359,-54.27349
2021-04-04 09:14:01+00:00,61.0,6.68,60.0,7.23,12.33,47.59359,-54.27349
2021-04-04 09:24:01+00:00,60.0,6.96,60.0,7.67,12.33,47.59359,-54.27349
2021-04-04 09:34:01+00:00,53.0,8.24,56.0,8.71,12.33,47.59359,-54.27349
2021-04-04 09:44:01+00:00,52.0,8.33,50.0,9.29,12.33,47.59359,-54.27349
2021-04-04 09:54:01+00:00,53.0,7.88,53.0,8.44,12.33,47.59359,-54.27349
2021-04-04 10:04:01+00:00,51.0,7.03,52.0,8.23,12.33,47.59359,-54.27349
2021-04-04 10:14:01+00:00,43.0,6.39,42.0,7.05,12.33,47.59359,-54.27349
2021-04-04 10:24:01+00:00,48.0,6.53,50.0,7.25,12.33,47.59359,-54.27349
2021-04-04 10:34:01+00:00,51.0,7.57,47.0,8.27,12.33,47.59359,-54.27349
2021-04-04 10:44:01+00:00,53.0,7.49,56.0,8.44,12.33,47.59359,-54.27349
2021-04-04 10:54:01+00:00,58.0,7.75,56.0,8.45,12.33,47.59359,-54.27349
2021-04-04 11:04:01+00:00,58.0,8.42,54.0,9.29,12.33,47.59359,-54.27349
2021-04-04 11:14:01+00:00,57.0,8.8,59.0,9.64,12.57,47.59359,-54.27349
2021-04-04 11:24:01+00:00,56.0,8.19,55.0,8.84,12.57,47.59359,-54.27349
2021-04-04 11:34:01+00:00,56.0,7.21,55.0,7.87,12.57,47.59359,-54.27349
2021-04-04 11:44:01+00:00,53.0,7.04,51.0,7.72,12.57,47.59359,-54.27349
2021-04-04 11:54:01+00:00,54.0,7.65,52.0,8.26,12.57,47.59359,-54.27349
2021-04-04 12:04:01+00:00,54.0,7.86,52.0,8.46,12.57,47.59359,-54.27349
2021-04-04 12:14:01+00:00,53.0,7.66,52.0,8.5,12.73,47.59359,-54.27349
2021-04-04 12:24:01+00:00,53.0,7.78,51.0,8.52,12.73,47.59359,-54.27349
2021-04-04 12:34:01+00:00,54.0,7.96,51.0,9.04,12.73,47.59359,-54.27349
2021-04-04 12:44:01+00:00,52.0,8.67,49.0,9.49,12.73,47.59359,-54.27349
2021-04-04 12:54:01+00:00,55.0,8.12,55.0,8.72,12.73,47.59359,-54.27349
2021-04-04 13:04:01+00:00,53.0,8.54,50.0,9.49,12.73,47.59359,-54.27349
2021-04-04 13:14:01+00:00,56.0,8.49,54.0,8.97,13.29,47.59359,-54.27349
2021-04-04 13:24:01+00:00,54.0,8.86,56.0,9.61,13.29,47.59359,-54.27349
2021-04-04 13:34:01+00:00,57.0,8.38,55.0,9.15,13.29,47.59359,-54.27349
2021-04-04 13:44:01+00:00,55.0,7.27,53.0,8.07,13.29,47.59359,-54.27349
2021-04-04 13:54:01+00:00,53.0,6.12,48.0,7.3,13.29,47.59359,-54.27349
2021-04-04 14:04:01+00:00,47.0,4.97,55.0,5.95,13.29,47.59359,-54.27349
2021-04-04 14:14:01+00:00,40.0,5.28,47.0,6.06,13.84,47.59359,-54.27349
2021-04-04 14:24:01+00:00,48.0,5.17,49.0,5.94,13.84,47.59359,-54.27349
2021-04-04 14:34:01+00:00,46.0,6.69,44.0,7.38,13.84,47.59359,-54.27349
2021-04-04 14:44:01+00:00,55.0,6.68,54.0,7.31,13.84,47.59359,-54.27349
2021-04-04 14:54:01+00:00,59.0,7.05,55.0,7.94,13.84,47.59359,-54.27349
2021-04-04 15:04:01+00:00,64.0,6.58,65.0,7.43,13.84,47.59359,-54.27349
2021-04-04 15:14:01+00:00,64.0,7.25,63.0,7.91,13.92,47.59359,-54.27349
2021-04-04 15:24:01+00:00,61.0,7.59,62.0,8.13,13.92,47.59359,-54.27349
2021-04-04 15:34:01+00:00,64.0,7.79,64.0,8.7,13.92,47.59359,-54.27349
2021-04-04 15:44:01+00:00,65.0,7.83,62.0,8.53,13.92,47.59359,-54.27349
2021-04-04 15:54:01+00:00,64.0,8.01,65.0,8.99,13.92,47.59359,-54.27349
2021-04-04 16:04:01+00:00,63.0,8.16,57.0,9.09,13.92,47.59359,-54.27349
2021-04-04 16:14:01+00:00,64.0,8.45,64.0,9.7,13.92,47.59359,-54.27349
2021-04-04 16:24:01+00:00,64.0,8.52,62.0,9.75,13.92,47.59359,-54.27349
2021-04-04 16:34:01+00:00,64.0,8.9,61.0,9.58,13.92,47.59359,-54.27349
2021-04-04 16:44:01+00:00,60.0,8.23,62.0,8.91,13.92,47.59359,-54.27349
2021-04-04 16:54:01+00:00,57.0,8.85,57.0,9.36,13.92,47.59359,-54.27349
2021-04-04 17:04:01+00:00,58.0,9.08,57.0,9.74,13.92,47.59359,-54.27349
2021-04-04 17:14:01+00:00,57.0,9.3,61.0,10.69,14.24,47.59359,-54.27349
2021-04-04 17:24:01+00:00,55.0,9.03,56.0,9.66,14.24,47.59359,-54.27349
2021-04-04 17:34:01+00:00,57.0,8.37,56.0,8.98,14.24,47.59359,-54.27349
2021-04-04 17:44:01+00:00,58.0,7.49,54.0,8.28,14.24,47.59359,-54.27349
2021-04-04 17:54:01+00:00,56.0,8.3,57.0,8.72,14.24,47.59359,-54.27349
2021-04-04 18:04:01+00:00,52.0,7.24,52.0,7.99,14.24,47.59359,-54.27349
2021-04-04 18:14:01+00:00,48.0,6.19,44.0,6.53,13.68,47.59359,-54.27349
2021-04-04 18:24:01+00:00,52.0,5.06,55.0,5.53,13.68,47.59359,-54.27349
2021-04-04 18:34:01+00:00,60.0,5.8,58.0,7.05,13.68,47.59359,-54.27349
2021-04-04 18:44:01+00:00,59.0,7.07,59.0,7.93,13.68,47.59359,-54.27349
2021-04-04 18:54:01+00:00,56.0,6.9,57.0,7.4,13.68,47.59359,-54.27349
2021-04-04 19:04:01+00:00,57.0,7.72,58.0,8.31,13.68,47.59359,-54.27349
2021-04-04 19:14:01+00:00,55.0,6.92,55.0,7.46,13.53,47.59359,-54.27349
2021-04-04 19:24:01+00:00,52.0,6.17,50.0,6.78,13.53,47.59359,-54.27349
2021-04-04 19:34:01+00:00,45.0,7.09,45.0,7.37,13.53,47.59359,-54.27349
2021-04-04 19:44:01+00:00,46.0,6.82,50.0,7.68,13.53,47.59359,-54.27349
2021-04-04 19:54:01+00:00,67.0,8.16,64.0,9.02,13.53,47.59359,-54.27349
2021-04-04 20:04:01+00:00,68.0,8.86,72.0,9.86,13.53,47.59359,-54.27349
2021-04-04 20:14:01+00:00,69.0,9.09,69.0,10.1,13.6,47.59359,-54.27349
2021-04-04 20:24:01+00:00,70.0,8.96,72.0,10.12,13.6,47.59359,-54.27349
2021-04-04 20:34:01+00:00,68.0,8.52,69.0,9.58,13.6,47.59359,-54.27349
2021-04-04 20:44:01+00:00,68.0,7.64,70.0,8.52,13.6,47.59359,-54.27349
2021-04-04 20:54:01+00:00,56.0,5.83,55.0,6.49,13.6,47.59359,-54.27349
2021-04-04 21:04:01+00:00,54.0,5.26,55.0,5.95,13.6,47.59359,-54.27349
2021-04-04 21:14:01+00:00,53.0,4.54,53.0,5.12,13.21,47.59359,-54.27349
2021-04-04 21:24:01+00:00,57.0,4.18,57.0,5.9,13.21,47.59359,-54.27349
2021-04-04 21:34:01+00:00,45.0,4.41,51.0,5.57,13.21,47.59359,-54.27349
2021-04-04 21:44:01+00:00,46.0,5.44,41.0,6.41,13.21,47.59359,-54.27349
2021-04-04 21:54:01+00:00,51.0,6.53,54.0,7.27,13.21,47.59359,-54.27349
2021-04-04 22:04:01+00:00,58.0,6.43,57.0,7.11,13.21,47.59359,-54.27349
2021-04-04 22:14:01+00:00,55.0,6.74,54.0,7.27,12.73,47.59359,-54.27349
2021-04-04 22:24:01+00:00,49.0,6.35,51.0,7.16,12.73,47.59359,-54.27349
2021-04-04 22:34:01+00:00,46.0,7.3,46.0,7.61,12.73,47.59359,-54.27349
2021-04-04 22:44:01+00:00,50.0,8.13,52.0,8.45,12.73,47.59359,-54.27349
2021-04-04 22:54:01+00:00,48.0,8.24,49.0,8.66,12.73,47.59359,-54.27349
2021-04-04 23:04:01+00:00,49.0,8.09,50.0,8.48,12.73,47.59359,-54.27349
2021-04-04 23:14:01+00:00,54.0,7.43,57.0,8.13,12.57,47.59359,-54.27349
2021-04-04 23:24:01+00:00,58.0,8.18,57.0,8.76,12.57,47.59359,-54.27349
2021-04-04 23:34:01+00:00,54.0,7.09,54.0,7.86,12.57,47.59359,-54.27349
2021-04-04 23:44:01+00:00,49.0,5.66,53.0,6.84,12.57,47.59359,-54.27349
2021-04-04 23:54:01+00:00,53.0,7.17,58.0,8.05,12.57,47.59359,-54.27349
